Погода в Корлики

Погода в Корлики : погода сейчас, прогноз погоды и архив. Всё, что Вы хотите узнать о погоде в Корлики!

Поиск расширенной информации на нашем сайте:

Другие новости

Новости СМИ2

Главная страница сайта

Новости сайта

03.07.2017

Напоминаем, что на нашем специализированном сайте Метеоцентр.Азия вы можете получить высокодетализированные автоматические прогнозы погоды по пунктам России, СНГ и мира в авиационном формате (включающие направление и скорость ветра, видимость, явления погоды, количество и форму облачности, нижнюю и верхнюю границу облачности).


Погода в Корлики - сегодня

Время (UTC), дата Ветер
(°,м/с) 
Видим.   Явления Облачность Т
(°С)
Тd
(°С)
f(%) Тe
(°С)
Pmin
(гПа)
dP
(гПа)
Po
(мм)
O2
(г/м3)
Тmin Tmax R s Состояние
почвы
12 18.04.18 230 (ЮЗ) н/о    н/о 
-9.1 -19.5 43 -12  1018.9  -0.5  757  317           
18 18.04.18 170 (Ю) 10 км    9/0 верхняя 
[Cs]
-23.3 -26.6 74 -24  1018.6  -1.3  756  335           
21 18.04.18 190 (Ю) 10 км    ясно 
-15.1 -19.8 67 -17  1016.6  -1.5  755  324           
00 19.04.18 170 (Ю) 10 км    10/0 верхняя 
[Cs]
-12.5 -17.9 64 -16  1014.4  -2.1  753  320           
03 19.04.18 170 (Ю) 10 км    10/0 верхняя 
[Cs]
-6.3 -15.6 48 -10  1011.9  -2.1  752  311  -23.8      71  равномерный
мокрый или
старый снег
100% 
06 19.04.18 190 (Ю) 5-11{12}  н/о    н/о 
-2.2 -13.4 42 -6  1009  -2  750  306           
12 19.04.18 190 (Ю) 6-13{14}  н/о    н/о 
-0.9 -7.7 60 -5  1006.9  -0.2  749  303           
15 19.04.18 190 (Ю) 5-12{13}  10 км  позёмок  10/0 средняя 
[As op]
-0.3 -8.1 56 -3  1006.9  -0.9  748  303    +0.5  0.0     
00 20.04.18 170 (Ю) 4000 м  слаб. снег  10/0 средняя 
[As op]
-2.5 -4.7 85 -5  1003.4  -0.7  745  304           
03 20.04.18 170 (Ю) 2000 м  снег  10/0 средняя 
[As op]
-1.6 -3.6 86 -4  1002.8  -0.5  745  302  -2.6    0.9  68  равномерный
сухой снег
100% 
06 20.04.18 160 (Ю) 5-11{11}  н/о    н/о 
+0.3 -3 78 -3  1000.7  -1.1  744  300           
12 20.04.18 170 (Ю) 2{11}  н/о    н/о 
+4 -0.7 71 +4  998.3  -1.3  743  295           
15 20.04.18 190 (Ю) 6-13{15}  10 км    10/10 600 м 
[Sc]
+3.1 -0.8 76 998.7  -0.5  742  296    +4.4     
21 20.04.18 180 (Ю) 4000 м  слаб. снег  10/0 средняя 
[As op]
+0.6 -0.2 94 997.2  -1.2  741  298           
00 21.04.18 160 (Ю) 4000 м  слаб. снег  10/10 600 м 
[Ns]
+0.2 -0.5 95 -1  995.9  -1.3  740  298           
03 21.04.18 200 (Ю) 4000 м  слаб. морось{снег}  10/10 600 м 
[Sc]
+1.2 +0.2 93 +1  995.4  -0.5  740  297  +0.2    67  равномерный
мокрый или
старый снег
100% 
06 21.04.18 310 (СЗ) н/о    н/о 
+0.7 -0.8 90 995.7  1.2  740  298           
09 21.04.18 310 (СЗ) 4000 м  слаб. ливневой снег  10/10 600 м кучево-дожд. 
[Cb cap]
-0.3 -1.9 89 -2  998.7  742  299           
12 21.04.18 270 (З) н/о    н/о 
-1.4 -3.4 86 -2  1000.3  2.5  744  302           
18 21.04.18 300 (СЗ) 10 км    10/0 средняя 
[Ac As]
-5.8 -10.2 71 -5  1004  0.9  746  308           
21 21.04.18 310 (СЗ) 10 км    10/0 средняя 
[Ac As]
-6.6 -10.1 76 -6  1003.1  0.1  746  309           
00 22.04.18 350 (С) 10 км    10/0 средняя 
[Ac As]
-7.1 -10.4 77 -9  1003.9  746  310           
03 22.04.18 010 (С) 10 км    10/0 верхняя 
[Cc]
-6.3 -12.3 62 -8  1004  0.1  746  309  -7.2      69  равномерный
мокрый или
старый снег
100% 
06 22.04.18 010 (С) н/о    н/о 
-4.3 -13.4 49 -7  1002.9  -0.3  746  306           
09 22.04.18 310 (СЗ) 10 км    1/0 верхняя 
[Ci fib]
-3.6 -14.2 44 -6  1005.8  747  306           
Время (UTC), дата Ветер
(°,м/с) 
Видим.   Явления Облачность Т
(°С)
Тd
(°С)
f(%) Тe
(°С)
Pmin
(гПа)
dP
(гПа)
Po
(мм)
O2
(г/м3)
Тmin Tmax R s Состояние
почвы

Для получения пояснительной информации подведите курсор к названию столбца.

ПОГОДА в Корлики - архив

Всё, что Вы хотите узнать о погоде в Корлики - удобно и подробно!

Выберите нужную дату (начиная с 1 января 2015* года) и нажмите кнопку "Найти".
Будут отображены архивные сводки погоды по пункту Корлики, начиная с указанной даты.


Отображать данные в формате CSV (для использования в таблицах Excel)


Внимание! Наш архив погоды предназначен исключительно для личного некоммерческого использования в познавательных целях. Если Вам необходимы официальные справки о состоянии погоды (для производственных, юридических, коммерческих и т.п. целей), обращайтесь в органы Росгидромета.

*Примечание: данная дата относится к архиву по метеостанциям СССР (Россия, СНГ, Балтия).
Архив по метеостанциям Зарубежной Европы и Азии (кроме Китая) хранится 10 дней, по другим регионам земного шара (Китай, Африка, Америка, Австралия, Океания) - 1 день.

Корлики - район местоположения метеостанции


Название, широта, долгота, высота метеостанции:
Корлики 61.5°ш. 82.4°д. 80 м над ур. моря [Российская Федерация]

Дополнительная информация

В oтличие oт бoльшинства пoгoдных сайтoв мы публикуем пoдрoбную метеoинфoрмацию в детальнoм прoфессиoнальнoм фoрмате.

Характеристики температуры и влажнoсти вoздуха измеряются на высoте 2 м в тени вдали oт зданий и деревьев.
Скoрoсть ветра измеряется на высoте 10 м (на урoвне рoста челoвека скoрoсть ветра ниже в 1.5-2 раза). Если метеoстанция нахoдится в гoрoде или в лесу, тo скoрoсть ветра занижена на 2-4 м/с пo сравнению с oткрытым местoм. Скoрoсть ветра над акватoриями крупных рек и oзёр, а также на вершинах хoлмoв на 2-5 м/с выше, чем в oбычных услoвиях.
Атмoсфернoе давление в разных тoчках местнoсти мoжет значительнo oтличаться oт давления на метеoстанции, в зависимoсти oт услoвий рельефа (при пoдъёме на 10 м давление пoнижается примернo на 1 мм рт.ст.).